[[{"header":{"parameterUnit":"m.s-1","parameterCategory":1,"la1":30.2991,"la2":30.254,"lo1":-89.0895,"lo2":-89.0444,"dy":0.0017,"dx":0.0017,"nx":28,"ny":28,"refTime":"2025-01-12T03:00:00:Z","depth":0,"parameterNumber":2,"parameterNumberName":"U-component_of_WINDS"},"data":[0,0,0,0,0,0,0,0,0,0,0,0,0,0,0,0,0,0,0,0,0,0,0,0,0,0,0,0,0,0,0,0,0,0,0,0,0,0,0,0,0,0,0,0,0,0,0,0,0,0,0,0,0,0,0,0,0,0,2.1283,2.1283,0,2.1327,2.1327,2.1328,2.1312,2.1311,2.131,2.1309,2.1353,2.1355,2.1357,0,0,0,0,0,0,0,0,0,0,0,0,0,2.1186,2.1187,2.1283,2.1283,2.1284,2.1327,2.1327,2.1328,2.1312,2.1311,2.131,2.1309,2.1352,2.1355,2.1357,0,0,0,0,0,0,0,0,0,0,0,0,0,2.1228,2.1188,2.1283,2.1281,2.1282,2.1327,2.1327,2.1328,2.1312,2.1311,2.1309,2.1308,2.1351,2.1354,2.1357,2.1406,0,0,2.1367,2.1368,0,0,0,0,0,0,0,0,2.1226,2.1232,2.1281,2.1281,2.1282,2.1312,2.1309,2.1354,2.1313,2.1301,2.1309,2.1307,2.134,2.1344,2.1356,2.1408,2.141,2.1367,2.1369,2.137,2.1371,0,0,0,0,0,0,0,2.1223,2.123,2.13,2.1282,2.1282,2.1278,2.1283,2.1317,2.1328,2.1302,2.1301,2.1306,2.134,2.1353,2.1357,2.1411,2.1367,2.137,2.1372,2.1373,2.1507,2.1508,0,0,0,0,0,0,2.122,2.1228,2.1299,2.1301,2.125,2.1281,2.1286,2.1304,2.1328,2.133,2.1307,2.1305,2.1348,2.1353,2.1358,2.1418,2.137,2.1373,2.1375,2.1505,2.1507,2.1509,0,0,0,0,0,0,2.1218,2.1226,2.1297,2.1264,2.1273,2.1285,2.1305,2.1306,2.1318,2.1332,2.1334,2.1318,2.1347,2.1354,2.1395,2.1419,2.1375,2.1378,2.1503,2.1506,2.1508,2.1536,0,0,0,0,0,0,2.1215,2.1226,2.1244,2.1265,2.1275,2.1333,2.1306,2.1308,2.1324,2.1321,2.1343,2.1345,2.1347,2.139,2.1398,2.1422,2.138,2.1501,2.1504,2.1507,2.1533,2.154,2.1545,0,0,0,0,0,2.1212,2.125,2.1245,2.1254,2.1298,2.1334,2.134,2.1342,2.1326,2.1344,2.1354,2.1344,2.1415,2.1394,2.1403,2.1429,2.1499,2.1503,2.1507,2.1531,2.1538,2.1545,0,0,0,0,0,0,2.1231,2.1252,2.1248,2.1293,2.1312,2.1331,2.1355,2.1349,2.1373,2.1369,2.137,2.1375,2.1418,2.1427,2.1404,2.1478,2.1455,2.1461,2.147,2.1477,2.1483,2.148,2.1383,0,0,0,0,0,2.1241,2.1268,2.1285,2.1324,2.1334,2.1343,2.1359,2.1359,2.1378,2.1386,2.1398,2.1417,2.1444,2.1461,2.1486,2.1535,2.154,2.1557,2.1563,2.1568,2.1572,2.16,2.1608,2.1521,2.1521,2.1521,0,0,2.126,2.1276,2.1293,2.1329,2.1343,2.1372,2.135,2.1381,2.1402,2.139,2.143,2.144,2.1461,2.1507,2.1527,2.1516,2.1598,2.1572,2.1576,2.1578,2.1605,2.1613,2.162,2.1524,2.1523,2.1523,0,0,2.1312,2.1326,2.136,2.1376,2.1399,2.1405,2.1413,2.1434,2.144,2.148,2.1472,2.1498,2.1543,2.1559,2.1573,2.1633,2.1625,2.1641,2.1671,2.1698,2.1705,2.1711,2.1733,2.1741,2.1646,2.1646,2.1646,0,2.1333,2.1377,2.1379,2.1411,2.1427,2.1419,2.1454,2.1469,2.1499,2.151,2.1497,2.1556,2.1569,2.1619,2.1634,2.1645,2.1655,2.1639,2.1704,2.171,2.1716,2.1737,2.1745,2.1648,2.1648,2.1648,2.1647,0,2.1403,2.1433,2.1458,2.1488,2.1508,2.1541,2.1549,2.1568,2.1567,2.1574,2.1616,2.1632,2.1661,2.1673,2.1672,2.1723,2.1716,2.1704,2.168,2.1726,2.1746,2.1754,2.1651,2.165,2.1649,2.1649,0,0,2.1466,2.1498,2.1507,2.1522,2.1547,2.157,2.1604,2.1633,2.165,2.1671,2.17,2.174,2.173,2.1746,2.1746,2.177,2.1817,2.1755,2.1756,2.1767,2.1876,2.1886,2.1895,2.1813,2.1814,2.1815,2.1875,0,2.152,2.1579,2.1583,2.1637,2.1666,2.1659,2.1689,2.1708,2.1716,2.1742,2.1751,2.178,2.1763,2.1773,2.1796,2.1807,2.184,2.1802,2.184,2.1841,2.1835,2.1905,2.1914,2.1969,2.1882,2.1884,2.1885,0,2.159,2.1615,2.1672,2.1695,2.1707,2.1733,2.1761,2.1786,2.1808,2.1812,2.1831,2.1829,2.1864,2.184,2.1889,2.1864,2.188,2.1887,2.1889,2.1893,2.1866,2.1911,2.1987,2.1995,2.1897,2.1896,2.1895,0,2.1631,2.1679,2.172,2.1732,2.1759,2.1778,2.1791,2.1811,2.1829,2.1853,2.1865,2.1893,2.1909,2.1931,2.1936,2.1918,2.1986,2.1961,2.1991,2.1991,2.2005,2.2004,2.2085,2.2015,2.2014,2.2014,2.2014,0,2.1691,2.1727,2.1739,2.1764,2.1804,2.1808,2.1847,2.1858,2.1877,2.1904,2.19,2.1926,2.1932,2.1959,2.1964,2.2004,2.2011,2.2016,2.2017,2.2016,2.2016,2.2026,2.2023,2.2016,2.2016,2.2016,2.2015,0,2.1744,2.1753,2.1797,2.182,2.1827,2.1856,2.1875,2.19,2.1908,2.1943,2.1952,2.1965,2.1997,2.2005,2.2042,2.2046,2.2094,2.2091,2.2087,2.2087,2.2115,2.2113,2.2206,2.2219,2.214,2.2141,2.2141,0,2.1781,2.1809,2.1835,2.1854,2.1867,2.1897,2.1915,2.1921,2.1941,2.1969,2.199,2.2022,2.2047,2.2099,2.2112,2.2141,2.2139,2.217,2.2143,2.2142,2.214,2.2138,2.2142,2.2174,2.2175,2.2176,2.2177,0,2.1847,2.1851,2.1878,2.1908,2.1931,2.1954,2.1976,2.1992,2.2001,2.2023,2.2056,2.2076,2.2116,2.2147,2.2177,2.219,2.2185,2.2185,2.2193,2.2193,2.219,2.2193,2.2101,2.2183,2.2182,2.2182,2.2181,2.2181,2.1894,2.1918,2.1942,2.1973,2.199,2.2012,2.2036,2.2049,2.2076,2.2109,2.2111,2.2147,2.217,2.2209,2.2224,2.2253,2.2243,2.2255,2.2258,2.2261,2.2264,2.2186,2.2258,2.2258,2.2258,2.2258,2.2257,0,2.196,2.1975,2.2004,2.2036,2.2061,2.2055,2.208,2.2101,2.2133,2.2154,2.218,2.2219,2.225,2.2266,2.2297,2.2317,2.2316,2.2325,2.2324,2.2327,2.227,2.226,2.2326,2.2326,2.2326,2.2326,2.2326,2.2326,2.1998,2.2039,2.2046,2.2097,2.2112,2.2148,2.2162,2.2183,2.22,2.2244,2.227,2.228,2.23,2.2333,2.2362,2.2366,2.2378,2.2388,2.2391,2.2338,2.2331,2.2324,2.2315,2.2391,2.2391,2.2446,2.2446,2.2446]},{"header":{"parameterUnit":"m.s-1","parameterCategory":1,"la1":30.2991,"la2":30.254,"lo1":-89.0895,"lo2":-89.0444,"dy":0.0017,"dx":0.0017,"nx":28,"ny":28,"refTime":"2025-01-12T03:00:00:Z","depth":0,"parameterNumber":3,"parameterNumberName":"V-component_of_WINDS"},"data":[0,0,0,0,0,0,0,0,0,0,0,0,0,0,0,0,0,0,0,0,0,0,0,0,0,0,0,0,0,0,0,0,0,0,0,0,0,0,0,0,0,0,0,0,0,0,0,0,0,0,0,0,0,0,0,0,0,0,-2.4771,-2.4772,0,-2.4857,-2.4858,-2.4859,-2.4865,-2.4864,-2.4863,-2.4862,-2.495,-2.4953,-2.4956,0,0,0,0,0,0,0,0,0,0,0,0,0,-2.4612,-2.4615,-2.4771,-2.4772,-2.4773,-2.4857,-2.4859,-2.486,-2.4865,-2.4864,-2.4863,-2.4862,-2.4949,-2.4953,-2.4956,0,0,0,0,0,0,0,0,0,0,0,0,0,-2.4688,-2.4616,-2.4771,-2.4786,-2.4788,-2.4857,-2.4859,-2.486,-2.4865,-2.4864,-2.4862,-2.4861,-2.4947,-2.4952,-2.4957,-2.5016,0,0,-2.4972,-2.4974,0,0,0,0,0,0,0,0,-2.4684,-2.4694,-2.4783,-2.4785,-2.4788,-2.4849,-2.4835,-2.4912,-2.4866,-2.4836,-2.4862,-2.486,-2.4917,-2.4925,-2.4944,-2.502,-2.5024,-2.4972,-2.4975,-2.4977,-2.4979,0,0,0,0,0,0,0,-2.4678,-2.469,-2.4805,-2.4784,-2.4787,-2.4789,-2.4798,-2.4849,-2.4884,-2.4839,-2.4839,-2.4849,-2.4918,-2.4939,-2.4946,-2.5025,-2.4972,-2.4976,-2.4979,-2.4981,-2.5157,-2.5159,0,0,0,0,0,0,-2.467,-2.4686,-2.4803,-2.4808,-2.4731,-2.4793,-2.4803,-2.4831,-2.4883,-2.489,-2.485,-2.4849,-2.4932,-2.494,-2.4949,-2.5024,-2.4977,-2.4982,-2.4985,-2.5156,-2.5158,-2.516,0,0,0,0,0,0,-2.4667,-2.4681,-2.4799,-2.4747,-2.4762,-2.4797,-2.4828,-2.4833,-2.4854,-2.4892,-2.4898,-2.4865,-2.4931,-2.4942,-2.5,-2.5027,-2.4984,-2.4988,-2.5153,-2.5156,-2.5159,-2.5172,0,0,0,0,0,0,-2.4662,-2.4679,-2.4702,-2.4748,-2.4765,-2.4848,-2.483,-2.4836,-2.4863,-2.4862,-2.4908,-2.4914,-2.4931,-2.4993,-2.5005,-2.5033,-2.4992,-2.5151,-2.5155,-2.5158,-2.5169,-2.5175,-2.518,0,0,0,0,0,-2.4657,-2.4702,-2.4703,-2.4717,-2.4794,-2.485,-2.486,-2.4878,-2.4865,-2.4888,-2.4913,-2.4913,-2.5022,-2.4999,-2.5012,-2.5042,-2.515,-2.5154,-2.5158,-2.5167,-2.5174,-2.5179,0,0,0,0,0,0,-2.4657,-2.4708,-2.471,-2.4771,-2.4806,-2.4851,-2.488,-2.4884,-2.4923,-2.4921,-2.4942,-2.4952,-2.501,-2.5032,-2.5005,-2.5103,-2.5084,-2.5091,-2.5087,-2.5094,-2.5099,-2.5092,-2.4996,0,0,0,0,0,-2.4665,-2.4706,-2.4748,-2.4798,-2.4815,-2.4845,-2.487,-2.4881,-2.4918,-2.4933,-2.4962,-2.4998,-2.5041,-2.5068,-2.5109,-2.5173,-2.5184,-2.52,-2.5205,-2.5209,-2.5215,-2.5252,-2.526,-2.5172,-2.5172,-2.5172,0,0,-2.468,-2.4713,-2.4738,-2.4799,-2.4827,-2.487,-2.4857,-2.4902,-2.4935,-2.494,-2.4997,-2.5019,-2.5061,-2.5122,-2.5151,-2.5142,-2.5241,-2.5214,-2.5217,-2.5221,-2.5257,-2.5265,-2.5272,-2.5175,-2.5175,-2.5174,0,0,-2.4731,-2.4759,-2.4805,-2.4834,-2.4878,-2.4898,-2.4909,-2.4953,-2.4969,-2.5026,-2.5032,-2.507,-2.5142,-2.5173,-2.5197,-2.5262,-2.5264,-2.5274,-2.5301,-2.5337,-2.5344,-2.535,-2.5374,-2.5383,-2.528,-2.528,-2.528,0,-2.4745,-2.4809,-2.4828,-2.4874,-2.4901,-2.4909,-2.4956,-2.4983,-2.5038,-2.5057,-2.5047,-2.5139,-2.5168,-2.5237,-2.5253,-2.5272,-2.5287,-2.5269,-2.5341,-2.5348,-2.5354,-2.5377,-2.5386,-2.5281,-2.5281,-2.5281,-2.5281,0,-2.4825,-2.4869,-2.4901,-2.4955,-2.4986,-2.5032,-2.5059,-2.5088,-2.5097,-2.5118,-2.5177,-2.5212,-2.5261,-2.5278,-2.5286,-2.535,-2.5343,-2.5337,-2.5318,-2.5363,-2.5385,-2.5394,-2.5283,-2.5282,-2.5282,-2.5282,0,0,-2.4877,-2.4942,-2.4954,-2.4979,-2.5029,-2.5064,-2.5111,-2.516,-2.5185,-2.5223,-2.5264,-2.5326,-2.5321,-2.5349,-2.5362,-2.5393,-2.5444,-2.5383,-2.5384,-2.5394,-2.5517,-2.5522,-2.5532,-2.5445,-2.5447,-2.5448,-2.5514,0,-2.4934,-2.5018,-2.5038,-2.511,-2.5153,-2.5161,-2.5203,-2.5238,-2.5259,-2.5299,-2.5322,-2.5367,-2.5356,-2.5373,-2.5405,-2.5431,-2.5469,-2.5426,-2.5484,-2.5486,-2.5475,-2.5544,-2.5549,-2.561,-2.5523,-2.5524,-2.5525,0,-2.5012,-2.5053,-2.513,-2.5176,-2.5194,-2.5231,-2.5278,-2.5316,-2.5357,-2.537,-2.5403,-2.5412,-2.5462,-2.5441,-2.5512,-2.5482,-2.5507,-2.5524,-2.5527,-2.5533,-2.5509,-2.5554,-2.5629,-2.5638,-2.5539,-2.5538,-2.5537,0,-2.5044,-2.5118,-2.5175,-2.5196,-2.5251,-2.5277,-2.5301,-2.534,-2.5369,-2.541,-2.5429,-2.5476,-2.5501,-2.5538,-2.556,-2.5542,-2.5629,-2.5609,-2.5643,-2.5642,-2.5661,-2.566,-2.5742,-2.5675,-2.5675,-2.5675,-2.5675,0,-2.5106,-2.5153,-2.519,-2.5225,-2.5279,-2.5301,-2.5353,-2.5377,-2.5413,-2.5453,-2.5463,-2.55,-2.5527,-2.5568,-2.5586,-2.5643,-2.5654,-2.5667,-2.5671,-2.5667,-2.5665,-2.5684,-2.568,-2.5677,-2.5677,-2.5676,-2.5676,0,-2.5151,-2.5178,-2.524,-2.5288,-2.5301,-2.5338,-2.5379,-2.5414,-2.5435,-2.5486,-2.55,-2.5534,-2.5584,-2.561,-2.5671,-2.5683,-2.5747,-2.5748,-2.5734,-2.5736,-2.5768,-2.5765,-2.5867,-2.5882,-2.5803,-2.5804,-2.5805,0,-2.519,-2.5226,-2.5278,-2.5306,-2.5331,-2.5375,-2.5405,-2.5429,-2.546,-2.551,-2.5539,-2.5589,-2.5631,-2.571,-2.5741,-2.5788,-2.5792,-2.5824,-2.5799,-2.5794,-2.5794,-2.5792,-2.5796,-2.5828,-2.5829,-2.583,-2.583,0,-2.5255,-2.5267,-2.531,-2.5358,-2.5394,-2.5433,-2.5471,-2.5493,-2.5523,-2.5557,-2.5609,-2.5641,-2.5705,-2.5755,-2.5806,-2.5831,-2.5836,-2.5838,-2.5849,-2.5845,-2.5835,-2.5843,-2.5747,-2.5836,-2.5835,-2.5835,-2.5834,-2.5834,-2.5299,-2.5333,-2.5376,-2.5423,-2.5455,-2.5491,-2.5527,-2.5554,-2.5597,-2.5651,-2.5662,-2.5717,-2.5759,-2.5827,-2.5854,-2.5898,-2.5891,-2.5906,-2.591,-2.5913,-2.5916,-2.5828,-2.5907,-2.5907,-2.5907,-2.5906,-2.5906,0,-2.5367,-2.5395,-2.5439,-2.5493,-2.5531,-2.5533,-2.5576,-2.5608,-2.5656,-2.5695,-2.5736,-2.5796,-2.5845,-2.5881,-2.5931,-2.5959,-2.5963,-2.5972,-2.5971,-2.5977,-2.5918,-2.5905,-2.5968,-2.5968,-2.5968,-2.5968,-2.5968,-2.5968,-2.5406,-2.5464,-2.5482,-2.5556,-2.5584,-2.5638,-2.5663,-2.5697,-2.5728,-2.5794,-2.5836,-2.5859,-2.5897,-2.595,-2.5996,-2.6005,-2.6024,-2.6033,-2.6043,-2.5987,-2.5981,-2.5974,-2.5962,-2.6037,-2.6037,-2.6098,-2.6099,-2.6099]}]]